Regional Weather Roundup
Issued by NWS

Home | Current Version | Previous Version | Text Only | Print | Product List | Glossary Off
Versions: 1 2 3 4 5 6 7 8 9 10 11 12 13 14 15 16 17 18 19 20 21 22 23 24 25 26 27 28 29 30 31 32 33 34 35 36 37 38 39 40 41 42 43 44 45 46 47 48 49 50

000
ASUS43 KLMK 111010
RWRKY
KENTUCKY REGIONAL WEATHER ROUNDUP
NATIONAL WEATHER SERVICE LOUISVILLE KY
500 AM EST SUN DEC 11 2016

NOTE "FAIR" INDICATES FEW OR NO CLOUDS BELOW 12,000 FEET
WITH NO SIGNIFICANT WEATHER AND/OR OBSTRUCTIONS TO VISIBILITY.

KYZ001>023-026-027-061>063-070>075-111100-
WESTERN AND SOUTH CENTRAL KENTUCKY

CITY           SKY/WX    TMP DP  RH WIND       PRES   REMARKS
PADUCAH        CLOUDY    40  16  37 S8        30.19F WCI  34
HENDERSON      CLOUDY    34  19  55 SE5       30.22F WCI  30
OWENSBORO      CLOUDY    34  20  56 SE9       30.24F WCI  27
HOPKINSVILLE   CLOUDY    35  16  45 SE6       30.26F WCI  30
BOWLING GREEN  CLOUDY    33  19  56 S6        30.28F WCI  28
GLASGOW        CLOUDY    32  18  56 S6        30.28F WCI  26
$$

KYZ024-025-028>034-038-045-046-053-111100-
NORTH CENTRAL KENTUCKY

CITY           SKY/WX    TMP DP  RH WIND       PRES   REMARKS
LOUISVILLE/SDF CLOUDY    32  16  51 SE3       30.29F
LOUISVILLE/LOU CLOUDY    32  17  54 CALM      30.29F
FORT KNOX      CLOUDY    32  18  55 CALM      30.26F
$$

KYZ035>037-039>044-047>052-055>060-089>105-111100-
NORTHEAST KENTUCKY

CITY           SKY/WX    TMP DP  RH WIND       PRES   REMARKS
LEXINGTON      CLOUDY    31  15  52 SE3       30.30R
COVINGTON      CLOUDY    29  18  63 SE10      30.29F WCI  20
FRANKFORT      CLOUDY    31  18  58 E3        30.29S
$$

KYZ054-064>069-076>088-106>120-111100-
SOUTHEAST KENTUCKY

CITY           SKY/WX    TMP DP  RH WIND       PRES   REMARKS
JACKSON        PTCLDY    29  15  56 S6        30.29F WCI  23
LONDON         CLOUDY    23  16  74 S3        30.31F
SOMERSET       CLOUDY    23  18  80 CALM      30.33F
MIDDLESBORO    CLOUDY    21  19  92 CALM      30.35F
MONTICELLO     CLOUDY    20  16  84 W10       30.33F WCI   9
$$




USA.gov is the U.S. government's official web portal to all federal, state and local government web resources and services.